Orbital Elements at Epoch 2459200.5 (2020-Dec-17.0) TDB
Reference: JPL 19 (heliocentric ecliptic J2000)
Element | Value | Uncertainty (1-sigma) | Units |
e | .1006046329856398 | 3.422e-08 | |
a | 2.25790748908733 | 7.7581e-09 | au |
q | 2.030751534832171 | 7.6661e-08 | au |
i | 1.60089329596005 | 3.9228e-06 | deg |
node | 112.7830485604898 | 0.00013865 | deg |
peri | 256.1958754691057 | 0.00014034 | deg |
M | 161.9832680940474 | 2.0869e-05 | deg |
tp | 2458642.896746633695 (2019-Jun-08.39674663) | 7.1201e-05 | TDB |
period | 1239.24633435178 3.39 | 6.387e-06 1.749e-08 | d yr |
n | .2904991445371572 | 1.4972e-09 | deg/d |
Q | 2.485063443342488 | 8.5386e-09 | au |
|
| | Orbit Determination Parameters
Additional Information
|